Temp
33 31 30 32 34 36 34 32 30 31 33 34 31 30 30 31 30 32 32 31 31 31 31 33 33 32 31 30 30 29 29 28 27 26 27 27 27 28 28 27 26 26 26 26
33 32 34 35 36 37 34 33 30 33 35 36 32 32 30 30 30 34 33 32 32 31 31 32 33 32 30 30 30 30 30 28 27 27 27 27 27 28 27 26 27 26 26 26
31 34 37 36 36 36 35 33 31 33 31 34 32 33 29 30 31 31 33 34 33 33 31 31 32 31 30 29 30 30 29 28 27 27 27 27 27 27 26 26 26 26 26 26
33 35 37 36 36 36 34 38 35 34 31 30 33 30 29 29 29 29 32 33 33 33 33 32 32 31 30 29 30 30 29 28 28 28 27 27 28 27 27 28 27 26 26 25
33 35 35 35 36 37 35 38 34 34 30 31 32 30 32 29 29 28 35 35 34 34 34 33 33 33 30 29 29 30 29 28 28 28 27 28 28 27 27 28 27 26 26 25
35 36 37 38 37 37 38 37 37 35 32 29 33 32 32 31 31 29 33 36 36 35 34 34 34 34 32 29 29 29 29 29 28 28 28 27 28 27 27 26 26 26 25 25
33 35 36 38 37 36 38 34 29 30 30 29 30 31 33 33 35 35 34 36 35 35 35 34 34 33 33 30 29 27 28 27 28 28 28 27 27 26 27 27 26 25 25 25
30 32 34 38 37 34 34 32 28 30 30 31 32 31 32 37 37 37 38 36 37 35 35 35 33 34 33 31 30 28 27 27 27 27 27 28 27 27 27 27 28 26 25 26
32 32 37 37 37 35 33 32 33 33 33 31 32 34 35 33 30 30 32 32 28 33 35 34 32 34 33 32 30 28 27 27 28 27 27 27 27 27 27 27 27 26 26 26
33 32 35 36 37 36 35 34 33 30 32 32 31 34 31 30 29 31 33 35 29 28 34 35 34 34 34 32 32 30 29 28 28 28 27 27 26 26 27 27 27 26 26 26
37 33 34 35 35 33 33 32 33 30 30 29 29 30 35 30 28 28 29 25 27 31 32 35 34 34 34 33 32 30 28 28 27 27 27 26 26 26 26 26 27 27 27 26
36 33 31 33 35 36 36 34 33 28 32 31 30 31 36 33 27 29 26 26 25 28 29 32 33 35 34 33 32 30 28 28 29 28 27 27 26 26 26 26 27 27 27 26
37 31 29 32 33 36 37 35 34 33 31 32 30 31 34 33 32 32 27 25 25 24 27 31 30 29 32 33 32 30 28 28 28 28 28 27 26 26 26 26 26 27 26 26
36 33 31 29 32 33 35 35 35 35 32 33 31 30 21 21 21 28 32 31 29 31 31 29 29 28 31 32 32 32 30 29 29 28 28 27 27 27 27 27 26 26 26 26
35 33 34 34 35 36 36 37 37 36 36 33 27 23 22 22 24 24 31 32 31 31 30 30 29 29 32 32 32 32 32 31 30 30 29 28 28 28 27 27 26 26 26 25
35 31 35 33 35 36 36 37 37 38 34 28 24 21 22 21 19 26 29 31 30 30 30 30 31 30 30 31 31 31 31 30 30 30 30 30 29 28 27 27 26 26 26 25
33 31 31 32 34 35 34 36 36 36 32 31 27 23 23 24 24 25 23 32 30 30 30 32 32 28 30 31 31 30 30 29 29 29 29 29 28 27 27 27 26 26 25 25
33 32 29 30 33 32 33 35 35 31 29 28 25 23 25 25 25 28 24 28 30 30 31 32 31 31 32 31 30 30 29 29 28 28 28 28 27 27 27 26 26 25 24 24
34 32 31 29 28 29 32 30 32 31 29 28 27 24 25 26 27 24 26 29 30 30 31 32 33 31 31 30 30 29 29 28 28 27 27 27 26 25 26 26 26 25 25 23
35 33 29 30 27 27 27 32 32 34 30 30 27 26 24 24 24 24 29 31 30 32 33 33 33 32 31 31 30 29 28 28 28 28 27 26 26 26 25 26 25 25 25 24
32 31 32 31 29 28 28 29 30 31 30 31 27 26 24 23 25 29 30 30 31 32 32 33 32 32 32 31 31 30 28 27 28 28 28 27 26 26 26 25 25 25 24 22
25 27 27 28 27 28 30 31 30 30 33 31 31 27 26 29 30 31 30 29 30 31 32 32 31 30 30 30 29 29 28 28 28 28 27 27 27 26 25 24 24 24 23 21
25 26 27 26 26 25 28 30 31 30 32 32 32 33 32 31 31 30 29 30 30 31 31 31 30 29 29 29 29 29 29 28 28 28 26 26 26 26 25 24 23 23 23 21
23 26 27 26 25 28 30 33 33 32 31 32 33 33 33 32 31 30 29 28 28 30 28 29 29 28 28 29 29 29 28 28 28 27 26 25 25 25 25 24 24 23 21 20
30 32 30 27 28 28 30 30 31 31 32 32 31 32 33 34 32 31 29 27 27 27 29 29 29 29 28 28 28 28 28 28 27 25 25 24 23 22 22 22 23 23 23 22
28 27 27 26 26 26 27 28 31 31 31 29 29 29 29 29 29 29 28 28 27 28 29 29 29 28 28 28 28 28 27 27 26 25 24 23 22 21 20 20 20 21 21 20
Height
740 765 782 769 753 745 764 773 795 784 769 766 774 784 788 773 768 769 762 764 767 768 768 772 777 782 787 793 799 804 808 813 817 822 825 828 829 830 830 834 835 835 839 836
756 770 751 742 740 743 763 773 798 769 757 751 775 777 766 763 754 749 755 759 762 764 766 770 775 780 784 790 796 802 806 812 816 820 824 827 828 829 831 834 835 836 837 834
766 752 732 740 744 750 750 770 785 774 761 753 762 779 781 766 757 755 750 746 751 756 762 765 770 776 781 787 793 798 804 809 815 819 823 825 828 830 831 832 836 835 833 834
749 730 735 741 748 741 767 729 749 762 777 799 759 811 785 773 767 771 752 748 746 750 753 759 764 771 776 782 787 793 800 807 812 816 820 822 824 827 828 828 829 831 833 832
752 739 740 744 738 728 749 723 749 755 774 775 764 795 769 770 778 768 739 736 738 740 744 751 755 761 769 777 782 789 795 802 809 814 818 820 821 823 825 826 827 828 832 834
732 711 721 722 718 719 716 731 732 741 767 809 775 780 789 774 763 761 741 728 730 735 738 744 750 756 762 769 776 783 790 795 803 810 815 818 819 821 823 824 822 827 831 831
743 734 717 709 730 722 723 754 805 811 811 814 772 787 775 749 733 733 733 724 722 725 732 739 746 752 759 764 771 778 785 791 798 804 811 815 816 819 820 821 823 825 828 829
775 778 733 710 727 746 745 759 807 820 818 801 764 800 775 718 716 711 712 716 716 725 728 735 740 747 754 759 766 773 780 787 794 800 805 810 813 816 817 818 820 822 824 826
762 758 708 708 709 724 749 766 739 772 765 790 779 762 740 735 742 733 727 728 741 733 728 732 737 744 751 757 762 766 775 782 788 794 799 805 809 812 813 815 817 819 822 824
733 764 713 710 707 713 731 726 769 775 802 807 791 773 780 760 755 739 732 729 739 738 728 731 734 739 746 751 757 761 768 774 781 787 793 798 802 806 810 814 815 818 822 822
712 737 742 716 729 742 742 753 747 758 775 808 818 800 731 748 747 753 748 754 743 735 734 730 732 735 741 747 751 756 763 770 776 781 786 792 798 802 806 809 811 815 817 819
708 732 762 740 708 703 717 735 740 786 775 769 781 781 718 729 746 747 763 757 751 732 737 736 732 734 741 745 748 752 758 763 768 773 780 785 792 798 803 806 808 811 814 816
705 745 775 751 732 711 722 724 725 732 747 765 792 785 726 730 741 737 756 763 761 754 747 735 736 740 743 744 747 750 754 758 763 769 774 779 788 794 798 800 802 804 807 810
697 727 749 777 755 735 736 728 719 730 764 758 765 771 793 783 782 762 741 751 761 741 739 743 744 744 745 747 749 751 754 756 760 766 770 775 780 785 789 792 795 800 804 807
706 741 728 723 720 718 722 721 718 728 726 754 778 798 800 788 776 777 754 742 745 748 748 749 750 748 747 748 750 752 755 757 759 762 765 767 772 776 780 786 793 797 801 804
702 742 720 738 715 713 726 716 717 714 730 763 774 801 790 768 783 775 765 750 752 753 751 749 749 750 749 750 752 754 756 758 759 759 760 762 765 770 776 782 786 790 792 796
716 734 743 759 734 728 746 724 718 715 724 733 772 780 772 773 772 779 776 751 755 755 752 751 750 751 751 752 754 756 756 758 759 760 762 763 765 768 771 776 780 783 786 791
715 726 744 757 736 772 740 710 713 737 737 737 756 767 758 754 752 742 761 758 755 754 751 753 751 751 750 752 754 755 756 758 760 761 763 765 766 767 770 774 776 780 783 787
695 717 741 762 776 763 740 737 742 747 761 741 753 761 753 756 760 758 750 747 747 749 749 752 752 753 753 754 756 756 756 757 759 760 762 764 767 769 771 772 774 776 780 784
691 702 736 748 785 803 771 730 727 723 767 741 742 752 759 763 784 771 742 737 742 746 748 751 754 754 754 755 756 756 756 756 758 758 759 761 762 765 767 769 771 773 775 778
724 726 738 744 768 770 752 741 719 761 772 728 740 749 759 767 756 747 738 742 742 746 749 753 754 754 754 754 754 755 756 756 756 756 757 758 759 760 761 762 762 765 769 772
759 756 759 751 778 788 734 728 751 743 724 727 729 741 745 736 736 735 742 741 744 746 750 752 753 754 754 754 755 755 754 754 753 753 754 754 754 753 754 757 759 763 766 768
769 754 756 758 766 745 733 734 728 727 728 725 725 727 730 730 732 734 739 740 743 746 749 751 752 753 754 754 755 754 752 751 750 749 749 749 749 749 748 749 754 758 761 764
754 741 750 753 746 737 729 720 721 722 727 725 723 724 725 730 733 735 736 739 743 744 747 747 749 750 751 752 753 752 750 748 746 745 745 744 743 742 743 744 747 751 753 758
724 717 731 744 737 734 730 726 726 727 727 727 726 726 727 727 733 734 736 738 740 742 742 743 745 747 748 748 748 748 747 746 744 742 742 742 741 741 740 740 741 740 742 745
730 737 747 763 742 741 742 732 728 731 732 731 732 733 732 733 734 733 734 735 737 738 739 740 742 743 744 743 743 743 742 741 739 739 740 739 739 738 737 737 738 741 739 739
Wind_Speed
9 5 5 12 13 15 20 12 10 3 10 12 20 9 5 8 6 12 15 12 11 9 11 26 26 31 31 34 31 26 24 29 26 25 18 12 8 7 6 10 12 10 4 5
6 10 10 12 17 16 13 15 9 5 8 20 11 5 16 19 23 22 18 16 14 10 12 17 26 28 32 37 33 25 24 27 28 25 19 16 13 10 10 16 4 12 10 2
9 9 16 17 15 14 8 15 7 11 19 12 4 3 17 20 10 5 12 20 18 18 16 17 20 28 31 36 34 31 24 29 27 22 15 16 12 7 10 9 9 11 5 5
9 15 15 14 11 8 7 6 21 10 6 4 7 3 6 9 7 7 15 20 20 19 16 17 21 26 30 36 37 34 30 28 27 23 21 20 15 7 8 9 8 8 7 8
11 10 10 10 7 9 10 10 16 7 9 1 14 3 6 10 4 20 18 23 22 22 20 22 21 28 35 35 38 37 35 31 28 27 22 21 16 12 8 7 5 8 11 7
8 9 5 5 10 7 6 8 4 4 5 0 3 5 5 10 16 25 16 16 23 22 22 20 32 32 31 38 37 40 40 36 31 28 27 18 20 15 9 8 13 11 13 11
9 10 10 6 2 7 1 4 3 5 3 5 6 7 5 16 8 17 15 13 16 22 22 18 19 25 26 37 36 36 38 36 35 30 28 26 20 20 17 15 15 16 14 13
7 6 10 4 5 6 7 8 6 7 4 1 5 6 6 18 5 9 8 8 8 18 17 17 15 25 26 33 35 36 36 34 35 33 30 28 27 18 20 18 16 17 18 13
5 8 5 7 6 8 10 5 11 2 5 4 3 1 6 7 8 10 12 14 18 15 15 15 10 26 24 28 33 36 38 36 37 35 30 28 26 28 21 21 17 21 18 14
9 7 7 11 7 8 8 6 2 3 1 1 4 2 5 9 5 9 14 14 11 14 11 13 11 24 28 33 35 38 42 41 38 35 35 31 29 27 28 22 23 25 17 15
4 2 8 7 6 8 3 5 5 4 5 5 4 5 5 14 10 12 10 9 10 17 8 13 11 23 29 31 36 36 37 36 36 34 32 31 31 29 29 23 26 25 20 19
7 2 2 11 11 9 6 9 7 5 6 4 6 4 6 11 12 15 16 15 13 26 15 8 9 12 17 25 30 34 35 36 39 36 31 31 30 29 28 27 27 27 23 21
4 4 3 7 6 3 4 8 7 5 3 1 6 3 4 11 14 13 23 20 19 11 12 7 9 8 14 13 27 29 33 34 35 35 33 32 30 30 29 31 28 30 27 26
5 2 6 5 7 6 4 9 8 4 3 3 5 11 19 18 18 20 10 20 20 9 14 10 9 7 15 15 17 11 26 31 33 33 32 32 33 33 33 30 31 31 30 28
4 2 1 2 5 6 5 6 10 6 4 4 14 14 11 20 26 22 10 8 11 10 10 8 6 6 8 7 11 11 8 14 28 32 32 36 38 37 36 33 31 28 30 28
2 2 2 6 12 15 16 9 10 6 15 16 22 11 4 23 21 29 13 8 9 9 9 7 7 5 7 8 9 7 6 3 5 14 30 34 39 39 36 31 31 29 31 32
4 5 3 4 9 14 5 5 7 4 9 14 6 9 11 14 24 19 11 4 8 7 7 4 4 8 17 13 11 8 6 5 7 7 9 18 28 32 34 33 30 34 33 34
5 3 6 6 3 2 4 14 17 18 13 19 20 17 16 17 19 12 5 9 8 7 5 1 2 10 13 12 12 8 8 6 6 7 11 10 20 28 28 30 29 30 32 33
9 4 1 4 4 4 10 8 13 4 3 14 18 17 17 11 6 6 13 7 9 7 4 5 12 15 22 15 10 8 8 9 8 10 11 12 8 13 18 23 27 28 28 29
2 4 5 3 6 3 12 24 16 4 3 12 13 14 14 8 4 5 8 10 9 10 10 7 9 12 11 9 9 6 7 10 10 13 16 18 18 16 16 20 27 27 28 31
3 3 1 3 7 4 3 10 12 7 4 5 21 17 12 5 5 4 8 6 13 10 10 9 10 10 8 2 4 4 10 10 9 6 14 15 16 23 28 26 30 31 29 29
4 5 4 4 5 2 4 7 7 2 4 9 10 16 14 10 12 9 8 9 8 8 11 10 10 13 15 11 7 5 3 4 8 8 6 9 16 19 19 23 25 28 29 30
4 2 3 3 5 5 5 5 4 4 4 6 7 5 6 8 8 9 8 9 7 11 11 13 13 12 9 7 4 4 7 10 13 12 11 12 12 14 18 20 27 23 26 25
6 17 4 4 4 7 3 5 6 8 8 7 6 5 6 8 8 7 8 7 7 13 19 17 13 8 6 6 9 11 12 18 16 13 12 14 14 12 14 17 20 21 23 22
4 4 4 7 6 2 8 9 9 9 7 8 10 8 6 5 6 5 4 7 9 16 15 11 6 1 2 4 9 15 20 23 18 13 13 14 11 8 9 13 17 24 29 30
4 4 4 3 5 7 6 9 9 9 8 9 11 12 11 10 8 8 6 8 13 12 10 8 4 6 4 9 13 17 20 22 16 12 12 12 10 11 12 13 16 18 22 27
Wind_Direction
250 219 198 248 258 264 159 179 167 242 247 263 198 253 276 352 271 221 178 172 178 179 166 168 172 167 168 168 167 173 174 180 173 178 180 204 234 225 261 169 177 305 226 198
255 228 235 248 259 268 162 144 208 200 330 326 166 159 179 189 231 192 177 173 173 180 160 168 173 165 161 167 175 173 181 179 177 178 182 194 208 237 221 166 143 166 199 210
206 235 223 236 255 268 261 166 153 197 190 248 335 173 173 215 241 110 209 176 179 184 172 172 178 164 161 166 174 180 180 175 178 180 179 198 216 156 135 160 162 180 207 164
216 234 245 235 239 247 282 274 177 191 97 239 125 308 207 194 245 56 251 185 187 181 176 173 176 167 168 173 179 182 184 186 183 183 192 204 209 179 189 206 199 206 192 188
244 240 244 253 247 209 241 284 176 147 132 139 291 127 236 125 118 192 233 183 188 183 181 175 180 173 175 175 179 185 185 189 196 194 195 205 206 202 200 225 196 176 217 188
243 278 280 234 277 289 289 330 326 324 163 107 298 101 322 183 190 215 218 188 185 182 183 181 181 181 170 175 178 184 186 190 194 198 205 203 198 179 174 179 178 196 222 200
295 259 277 200 231 314 318 350 334 324 334 220 80 59 147 272 189 191 204 204 172 180 178 179 177 181 176 173 177 179 185 187 193 196 204 207 204 188 183 199 203 193 208 206
215 265 240 204 188 219 227 188 172 223 226 264 4 164 227 231 180 130 54 143 111 179 169 172 172 175 180 171 173 176 182 185 193 196 202 209 214 204 207 207 225 198 211 215
229 249 221 180 157 183 265 232 228 261 292 37 160 198 339 360 58 72 66 52 20 341 151 159 145 167 172 172 171 173 181 188 194 198 200 205 213 212 206 210 216 209 206 200
259 307 258 191 145 216 177 248 320 332 286 295 326 33 198 116 82 79 81 60 349 345 143 160 161 167 175 175 179 179 184 189 196 201 201 201 209 215 212 210 212 199 194 202
226 181 290 103 164 200 264 288 273 165 144 141 147 271 205 145 168 118 97 82 29 305 307 168 175 165 178 175 176 177 179 184 190 198 201 200 206 212 209 210 212 202 197 203
212 210 334 201 206 185 202 213 218 127 276 184 139 259 150 122 135 122 122 117 174 235 253 285 168 175 165 174 178 175 179 183 193 197 199 202 203 207 208 208 206 200 198 203
175 281 323 313 52 222 193 262 231 228 111 157 121 239 102 57 141 156 153 161 200 252 265 101 74 70 69 151 174 175 180 184 190 194 196 196 202 203 207 208 204 200 197 194
98 272 154 178 234 238 230 256 257 222 88 260 183 77 9 11 28 348 96 152 182 77 58 60 60 58 61 71 87 149 184 186 186 190 193 194 200 204 207 209 204 202 201 197
116 63 86 277 289 256 289 228 269 275 252 111 94 85 43 33 20 341 298 91 86 78 74 69 80 87 70 63 102 104 97 191 197 196 194 197 203 204 207 208 205 204 203 203
194 213 108 11 47 319 270 215 243 250 99 86 89 79 165 83 44 306 307 76 78 77 69 58 45 93 96 72 124 116 123 132 141 172 203 204 204 203 201 202 201 200 203 204
196 141 104 241 264 264 19 320 337 253 57 132 111 172 175 133 171 245 286 81 100 94 89 52 27 105 92 92 114 129 152 185 202 198 188 197 198 195 200 201 198 203 204 201
192 187 155 199 70 35 308 9 62 74 92 103 120 156 184 173 206 175 243 264 116 115 119 198 331 109 106 113 120 132 156 186 201 215 216 201 198 200 200 204 204 202 200 196
176 191 23 116 89 318 3 342 344 63 144 146 143 162 177 180 50 325 253 191 129 132 120 23 58 101 81 110 111 123 158 180 205 221 221 226 210 206 211 210 212 212 216 200
281 189 125 153 95 82 267 300 330 353 73 170 151 165 150 127 134 252 174 121 128 118 105 43 66 96 81 91 89 89 194 186 215 237 235 233 228 223 223 224 224 226 218 215
345 15 70 27 73 44 264 287 299 56 275 72 153 155 153 170 201 230 122 120 130 134 123 93 87 93 63 151 155 89 77 70 35 295 258 250 247 243 241 242 226 220 214 208
5 357 33 40 103 176 308 9 57 272 26 73 124 172 194 175 149 156 142 132 133 138 130 127 103 92 78 97 97 81 60 345 332 327 320 282 252 252 244 222 224 219 210 198
360 232 149 106 185 235 220 178 114 77 29 41 59 89 132 150 137 140 141 140 158 136 120 108 100 98 87 67 32 289 272 290 298 300 299 296 291 262 252 228 219 218 217 189
323 231 163 134 245 235 278 98 89 61 33 6 350 142 87 82 146 151 162 166 145 132 114 106 91 76 40 2 335 327 319 298 266 266 279 290 291 259 236 236 236 228 208 192
168 50 134 72 6 27 49 63 45 24 42 22 14 24 65 76 74 122 116 125 127 126 123 118 108 103 296 310 302 296 302 299 251 248 275 283 278 295 281 254 234 219 218 212
42 300 100 115 18 98 32 8 23 30 22 46 47 25 14 28 20 33 41 122 133 141 158 170 175 174 253 292 295 297 298 290 242 251 264 257 274 271 268 252 249 242 230 218